星链-35827(STARLINK-35827)

导读 | 豆包AI

STARLINK-35869是由美国于2025年11月6日发射的星链系列卫星,星链计划是SpaceX打造的巨型低轨互联网星座,该卫星继承系列技术设计,运行于近地轨道,主要承担为全球提供宽带互联网接入服务的任务,进一步扩充星链星座的卫星规模,提升星座网络覆盖密度与服务稳定性。

Basic Information
目录编号:
66353
目录名称:
STARLINK-35869
国际标识:
2025-254F
轨道中心:
EARTH
卫星名称:
星链-35827
卫星全名:
星链-35827(STARLINK-35827)
卫星状态:
在轨 (已飞行174 天)
发射日期:
2025-11-06 UTC
国别 :
美国 (US)
星等 :
--
Orbit Information
数据来源 国际轨道数据 AOE轨道数据
星历时间 2026-04-29T06:27:18+0800
6小时前
查看轨道信息
2026-04-22T20:00:00+0800
6天前
查看轨道信息
半长轴 6853.357km 6853.419km
偏心率 0.0001074 0.0002633
轨道倾角 53.161° 53.154°
近地点辐角 86.991° 131.291°
升交点赤经 358.701° 28.590°
平近点角 273.121° 37.068°
近地点 474.483km 473.477km
远地点 475.957km 477.087km
周期 94.105分钟 94.107分钟
每日圈数 15.301985 15.301776
Detailed Information
固有亮度:
5
最大亮度:
2.5
卫星平台:
Starlink V1.0
覆盖范围:
全球
运营商:
太空探索技术公司
运营商所在国:
美国
制造商(研发单位):
太空探索技术公司
制造商所在国:
美国
使用方式:
暂无
Satellite Introduction
Starlink 计划是 SpaceX 推出的全球卫星互联网项目,通过发射低轨道卫星,为全球尤其是偏远地区提供高速、低延迟的互联网服务。自 2019 年起,Starlink 已部署数千颗卫星,旨在缩小全球数字鸿沟,推动互联网普及。该项目还为军事、航空等行业提供通信支持,带来广泛经济效益。
2D Orbit Map
3D Orbit Map
Orbit Altitude Analysis Chart
Orbit Inclination Analysis Chart
Orbit Comprehensive Analysis Chart
View Comprehensive Chart